Regional Weather Roundup
Issued by NWS Spokane, WA

Home | Current Version | Previous Version | Text Only | Print | Product List | Glossary On
Versions: 1 2 3 4 5 6 7 8 9 10 11 12 13 14 15 16 17 18 19 20 21 22 23 24 25 26 27 28 29 30 31 32 33 34 35 36 37 38 39 40 41 42 43 44 45 46 47 48 49 50
000
NZUS01 KOTX 260610
RWROTX
EASTERN WASHINGTON/NORTHERN IDAHO ROUNDUP
NATIONAL WEATHER SERVICE, SPOKANE WA
1100 PM PDT MON MAY 25 2015

Note: "fair" indicated few or no clouds below 12,000 feet with no
significant weather and/or obstructions to visibility.

...NORTHEAST WASHINGTON AND NORTHERN IDAHO PANHANDLE...

CITY           SKY/WX    TMP DP  RH WIND       PRES   REMARKS
SPOKANE INTL   MOCLDY    54  46  74 W6        29.91S
SPOKANE DOWNTO CLOUDY    56  51  84 CALM      29.91S
COEUR D ALENE  MOCLDY    54  48  82 S6        29.90S
DEER PARK      CLOUDY    53  49  86 CALM      29.92R
SANDPOINT      PTCLDY    52  50  93 CALM      29.91S
BONNERS FERRY  MOCLDY    54  50  87 CALM      29.91S

...SOUTHEAST WASHINGTON AND SOUTHERN IDAHO PANHANDLE...

CITY           SKY/WX    TMP DP  RH WIND       PRES   REMARKS
WALLA WALLA    LGT RAIN  64  50  60 SE6       29.89R
PULLMAN/MOSCOW MOCLDY    53  47  79 CALM      29.92S
LEWISTON       CLOUDY    64  49  57 S6        29.87S
LOWELL           N/A     54  52  93 CALM      29.93S

...COLUMBIA BASIN...

CITY           SKY/WX    TMP DP  RH WIND       PRES   REMARKS
EPHRATA        CLOUDY    59  50  72 N3        29.89R
MOSES LAKE     PTCLDY    61  48  62 E6        29.90R
TRI CITIES     PTCLDY    63  56  78 NE3       29.87R
HERMISTON      CLOUDY    63  49  60 SW9       29.87R
PENDLETON      CLOUDY    59  52  77 W3        29.89S

...EAST SLOPES CASCADES...

CITY           SKY/WX    TMP DP  RH WIND       PRES   REMARKS
THE DALLES     CLEAR     62  46  55 NW9G22    29.93R
YAKIMA         CLEAR     66  41  40 NW18G31   29.90S
ELLENSBURG     CLEAR     57  44  62 NW16      29.92S
WENATCHEE      CLOUDY    65  43  44 NW9       29.90R
OMAK           CLOUDY    57  48  72 SW5       29.90R

...SOUTHERN BRITISH COLUMBIA...

CITY           SKY/WX    TMP DP  RH WIND       PRES   REMARKS
PENTICTON      MOCLDY    61  46  59 NW5       29.90S
CRANBROOK      LGT RAIN  50  46  87 SW5       29.96R

...WESTERN MONTANA...

CITY           SKY/WX    TMP DP  RH WIND       PRES   REMARKS
MISSOULA       MOCLDY    51  48  89 NW5       29.95S

...NEIGHBORING CITIES...

CITY           SKY/WX    TMP DP  RH WIND       PRES   REMARKS
SEATTLE        CLOUDY    56  50  80 S7        30.03S
CALGARY        MOCLDY    57  41  54 N7        29.91S



USA.gov is the U.S. government's official web portal to all federal, state and local government web resources and services.